User: anonymous   Login
Location: Isles
(48.9125°N, 2.8272°E)
Time: 02:57:27
(UTC+00:00)
Language:

Cosmos 1869 - Orbit

View from above orbital plane
View from above orbital plane
View from above satellite
View from above satellite

Ground track
Ground track

The orbit data is extracted from the following two-line orbital elements,

1 18214U 87062A   24206.71061703  .00009829  00000-0  46185-3 0  9993
2 18214  82.5166  77.2158 0025462 355.9543   4.1481 15.19179255 19989
Epoch (UTC): 24 July 2024 17:03:17
Eccentricity: 0.0025462
inclination: 82.5166°
perigee height: 491 km
apogee height: 526 km
right ascension of ascending node: 77.2158°
argument of perigee: 355.9543°
revolutions per day: 15.19179255
mean anomaly at epoch: 4.1481°
orbit number at epoch: 1998

The dashed part of the orbit path shows where the satellite is in the earth's shadow,  

DLR